CZ-6A DEB, 61349

Orbit data source: Space-Track

CZ-6A DEB, 61349 is space debris in LEO originally from a launch on Tue, 06 Aug 2024 UTC launched from the Taiyaun Space Center, China (TSC). Debris objects in space refer to the collection of defunct objects orbiting the Earth. Examples of debris include non-operational satellites, rocket bodies, and fragments generated from explosions, collisions, or faulty payload assembly.

Loading next visibility...
Identifier
61349, 2024-140VN
Orbit
LEO
Country
Flag of CNCN / PRC
Related business
Manufacturer
SAST
Mission
Spacecraft
Bus & Motor
Unknown
Mass
Unknown
Launch date (UTC)
2024-08-06 (2 years ago)
Launch vehicle
Unknown
Launch site
Taiyaun Space Center, China (TSC)
Object type
Payload
Rocket body
Debris
Shape & HBR
Unknown shape, 0.1 m
Radar Cross Section
Medium (>0.1 m² and <1 m²)

Expand to show TLE details & history
Last TLE update: 16 hours ago

TLE from 16 hours ago
0 CZ-6A DEB
1 61349U 24140VN  26171.28611921  .00003248  00000-0  52965-3 0  9998
2 61349  89.0660 274.4434 0132899 225.8392 133.1839 14.64974223 95706
Epoch: 2026-06-20T06:52Z
TLE epoch observation values (Epoch: 2026-06-20T06:52:00.699Z)
Latitude
-0.00004°
Longitude
-97.06244°
Altitude
745.11 km
Speed
7.448 km/s
True Right ascension
18h 17m 46s
True Declination
0° 00' 00"
Sunlit
Object was in full shadow at epoch
Visualization orbit readout
Latitude
Unknown
Longitude
Unknown
Altitude
Unknown
Speed
Unknown
Apparent Right ascension
Unknown
Apparent Declination
Unknown
Sunlit
N/A
Visualization observer readout
Local Sidereal Time
10:17:07
Azimuth
Unknown
Elevation
Unknown
Doppler factor
Unknown
Orbital elements
Apogee altitude
767.767 km
Perigee altitude
580.321 km
Semi-major axis
7,052.181 km
Eccentricity
0.01329
Inclination
89.066°
RAAN
274.4434°
Arg. of periapsis
225.8392°
True anomaly
134.28179°
Mean anomaly
133.1839°
Eccentric anomaly
133.73409°
Mean motion
3.66487 °/min
Orbital period
98.23 mins
BSTAR
0.00052965
Loading maneuver chart data...
Computing Atmospheric mass density...
Loading historical data...
Loading historical data...
Loading historical data...
Loading historical data...
Loading historical data...
Loading historical data...
Loading historical data...

Documentation

Showing up to 5 results
|